#timestamp,LO_Frequency,Hit,StdDev 
1619326815.3,286046998.5,N
1619326835.1,286046999.3,N
1619326836.0,286046999.3,N
1619326855.8,286046998.9,N
1619326875.7,286047000.9,N
1619326895.5,286047000.6,N
1619326915.3,286047001.2,N
1619326935.2,286046998.8,N
1619326955.0,286046999.1,N
1619326955.9,286046999.1,N
1619326975.8,286046997.4,N
1619326995.6,286046998.8,N
1619327015.4,286046998.9,N
1619327035.3,286046997.7,N
1619327055.1,286046998.8,N
1619327075.9,286047000.8,N
1619327095.7,286046998.2,N
1619327115.5,286046997.4,N
1619327135.4,286046993.7,Y
1619327155.2,286046998.0,P
1619327175.0,286046997.2,P
1619327175.9,286046997.2,P
1619327195.8,286046995.0,Y
1619327215.6,286046996.5,P
1619327235.5,286046996.6,P
1619327255.3,286046996.6,P
1619327275.2,286047001.2,N
1619327295.9,286046998.9,N
1619327315.7,286047001.0,N
1619327335.6,286047000.6,N
1619327355.4,286046998.2,N
1619327375.3,286046996.9,N
1619327395.1,286046999.2,N
1619327415.8,286047000.8,N
1619327435.7,286047001.2,N
1619327455.5,286047000.9,N
1619327475.4,286047000.1,N
1619327495.2,286047000.7,N
1619327515.0,286047000.6,N
1619327515.9,286047000.6,N
1619327535.8,286046999.0,N
1619327555.6,286046996.7,N
1619327575.5,286046996.8,N
1619327595.3,286046996.7,N
1619327615.2,286046998.4,N
1619327635.9,286047000.1,N
1619327655.7,286046998.1,N
1619327675.6,286047000.3,N
1619327695.4,286046998.1,N
1619327715.3,286046996.7,N
1619327735.1,286046997.3,N
1619327755.8,286046995.0,N
1619327775.7,286046996.7,N
1619327795.5,286046995.1,N
1619327815.4,286046996.0,N
1619327835.2,286046995.3,N
1619327855.0,286046996.7,N
1619327855.9,286046996.7,N
1619327875.8,286046995.0,N
1619327895.6,286046993.4,Y
1619327915.5,286046995.5,P
1619327935.3,286046995.3,P
1619327955.1,286046998.0,N
1619327975.9,286046995.3,Y
1619327995.7,286047000.6,P
1619328015.6,286046998.4,N
1619328035.4,286047000.5,N
1619328055.2,286046998.3,N
1619328075.1,286046999.7,N
1619328076.0,286046999.7,N
1619328095.8,286047001.6,N
1619328115.7,286047001.5,N
1619328135.5,286047002.8,N
1619328155.3,286047000.2,N
1619328175.2,286047000.4,N
1619328195.0,286047001.2,N
1619328195.9,286047001.2,N
1619328215.8,286046999.9,N
1619328235.6,286047001.0,N
1619328255.4,286047001.7,N
1619328275.3,286047002.6,N
1619328295.1,286047001.4,N
1619328315.8,286047003.4,N
1619328335.7,286047002.9,N
1619328355.5,286047005.6,Y
1619328375.4,286047002.2,P
1619328395.2,286047001.5,N
1619328415.0,286047002.0,P
1619328415.9,286047002.0,Y
1619328435.8,286047001.2,P
1619328455.6,286046998.6,P
1619328475.5,286047000.7,N
1619328495.3,286047000.6,N
1619328515.1,286047000.6,N
1619328535.9,286047001.6,N
1619328555.7,286047001.7,N
1619328575.5,286047002.3,N
1619328595.4,286047003.6,Y
1619328615.2,286047003.3,P
1619328635.1,286047001.3,N
1619328636.0,286047001.3,N
1619328655.8,286047005.8,Y
1619328705.7,286046999.9,E
1619328715.6,286047002.4,N
1619328735.4,286047000.8,P
1619328755.3,286046999.2,N
1619328775.1,286046999.6,N
1619328795.8,286046999.1,N
1619328815.7,286046998.5,N
1619328835.5,286047000.0,N
1619328855.3,286047002.5,N
1619328875.2,286047000.9,N
1619328895.0,286047000.7,N
1619328895.9,286047000.7,N
1619328915.8,286046999.6,N
1619328935.6,286046999.3,N
1619328955.4,286046999.3,N
1619328975.3,286046999.0,N
1619328995.1,286047000.8,N
1619329015.9,286047000.9,N
1619329035.7,286047002.5,N
1619329055.5,286047002.1,N
1619329075.4,286047000.5,N
1619329095.2,286047000.4,N
1619329115.1,286047001.0,N
1619329116.0,286047001.0,N
1619329135.8,286046999.5,N
1619329155.6,286046999.3,N
1619329175.5,286047000.5,N
1619329195.3,286047000.0,N
1619329215.1,286047002.5,N
1619329235.9,286047001.9,N
1619329255.7,286047003.8,Y
1619329275.6,286047002.8,P
1619329295.4,286047002.7,N
1619329315.2,286047001.2,N
1619329335.1,286046998.9,N
1619329336.0,286046998.9,N
1619329355.8,286047001.1,N
1619329375.7,286046996.5,N
1619329395.5,286046996.6,N
1619329415.3,286046996.9,N
1619329435.2,286046997.3,N
1619329455.0,286046996.9,N
1619329455.9,286046996.9,N
1619329475.7,286046998.3,N
1619329495.6,286047001.1,N
1619329515.4,286046998.7,N
1619329535.3,286046998.9,N
1619329555.1,286046996.9,N
1619329556.0,286046996.9,N
1619329575.8,286046996.6,N
1619329595.7,286046997.0,N
1619329615.5,286046995.4,N
1619329635.3,286046995.7,N
1619329655.2,286046996.4,N
1619329675.0,286046995.4,N
1619329675.9,286046995.4,N
1619329695.8,286046999.2,N
1619329715.6,286046999.4,N
1619329735.4,286046998.1,N
1619329755.3,286047000.7,N
1619329775.1,286046998.4,N
1619329795.9,286046998.5,N
1619329815.7,286046999.7,N
1619329835.5,286047000.1,N
1619329855.4,286046998.2,N
1619329875.2,286046998.2,N
1619329895.0,286047000.4,N
1619329895.9,286047000.4,N
1619329915.8,286047000.4,N
1619329935.6,286046998.7,N
1619329955.5,286046998.7,N
1619329975.3,286046998.6,N
1619329995.1,286046999.9,N
1619330015.9,286047000.2,N
1619330035.7,286047001.6,N
1619330055.5,286047002.4,N
1619330075.4,286047002.8,N
1619330095.2,286047000.1,N
1619330115.1,286047000.1,N
1619330116.0,286047000.1,N
1619330135.8,286047001.8,N
1619330155.6,286047002.5,N
1619330175.5,286047001.7,N
1619330195.3,286047002.6,N
1619330215.1,286047002.3,N
1619330235.9,286047002.5,N
1619330255.7,286047003.5,N
1619330275.6,286047003.1,N
1619330295.4,286047005.4,Y
1619330315.2,286047005.6,P
1619330335.1,286047005.1,N
1619330336.0,286047005.1,N
1619330355.8,286047003.0,N
1619330375.7,286047006.0,Y
1619330395.5,286047001.0,P
